Powrót do katalogu

FENGYUN 1C DEB

LostSSO
NORAD 36688·DEBRIS·🇨🇳 China

Wystrzelony May 10, 1999 z Taiyuan Satellite Launch Center

Loading…

Następne Przeloty (najbliższe 24 godziny)

TLE

NieaktualneSource: Space-Track

Epoka: Aug 23, 2011, 09:45 UTC

1 36688U 99025DZJ 11235.40675602  .00000598  00000-0  27257-3 0  9996
2 36688  99.0387 303.8870 0073858 226.0148 133.4943 14.24110055205144

Śledź FENGYUN 1C DEB w czasie rzeczywistym z AllMySat

Download on the App Store